• In Germany
  • List of Countries
  • For 7 days
  • Water Temperature
  • Satellite Maps
  • Weather Map
  • Weather Widgets
  • user-avatar
    Login

    Hourly Weather Florencia

    Today, 24 November, Friday

    Time Temperature Precipitation Wind Pressure Humidity
    00:00 +25°C° 0.4 mm 1 mps 732 mmHg 91%
    01:00 +25°C° 0 mm 1 mps 732 mmHg 88%
    02:00 +24°C° 0.2 mm 1 mps 732 mmHg 88%
    03:00 +24°C° 0.2 mm 1 mps 731 mmHg 87%
    04:00 +24°C° 0.2 mm 1 mps 731 mmHg 87%
    05:00 +25°C° 0.2 mm 1 mps 732 mmHg 85%
    06:00 +25°C° 0.2 mm 1 mps 732 mmHg 84%
    07:00 +24°C° 0.2 mm 0 mps 732 mmHg 82%
    08:00 +26°C° 0.2 mm 0 mps 733 mmHg 73%
    09:00 +29°C° 0.2 mm 0 mps 733 mmHg 63%
    10:00 +31°C° 0.2 mm 0 mps 733 mmHg 54%
    11:00 +34°C° 0.1 mm 1 mps 732 mmHg 52%
    12:00 +35°C° 0.1 mm 1 mps 732 mmHg 50%
    13:00 +36°C° 0.1 mm 1 mps 731 mmHg 47%
    14:00 +35°C° 0.2 mm 1 mps 730 mmHg 50%
    15:00 +34°C° 0.2 mm 1 mps 730 mmHg 52%
    16:00 +34°C° 0.2 mm 1 mps 729 mmHg 54%
    17:00 +32°C° 0.5 mm 1 mps 730 mmHg 63%
    18:00 +30°C° 0.5 mm 1 mps 730 mmHg 71%
    19:00 +27°C° 0.5 mm 1 mps 731 mmHg 80%
    20:00 +27°C° 1 mm 1 mps 731 mmHg 83%
    21:00 +26°C° 1 mm 1 mps 732 mmHg 87%
    22:00 +25°C° 1 mm 1 mps 733 mmHg 91%
    23:00 +25°C° 0.9 mm 1 mps 732 mmHg 91%

    Tomorrow, 25 November, Saturday

    Time Temperature Precipitation Wind Pressure Humidity
    00:00 +25°C° 0.9 mm 1 mps 732 mmHg 91%
    01:00 +25°C° 0.9 mm 1 mps 732 mmHg 90%
    02:00 +25°C° 0.7 mm 1 mps 732 mmHg 90%
    03:00 +25°C° 0.7 mm 1 mps 732 mmHg 90%
    04:00 +25°C° 0.7 mm 1 mps 732 mmHg 89%
    05:00 +25°C° 0.5 mm 1 mps 732 mmHg 88%
    06:00 +25°C° 0.5 mm 1 mps 733 mmHg 88%
    07:00 +25°C° 0.5 mm 1 mps 733 mmHg 87%
    08:00 +26°C° 0.6 mm 1 mps 733 mmHg 84%
    09:00 +25°C° 0.6 mm 0 mps 734 mmHg 81%
    10:00 +26°C° 0.6 mm 0 mps 734 mmHg 77%
    11:00 +28°C° 0.4 mm 0 mps 734 mmHg 72%
    12:00 +29°C° 0.4 mm 0 mps 733 mmHg 67%
    13:00 +30°C° 0.4 mm 0 mps 732 mmHg 62%
    14:00 +30°C° 0.3 mm 0 mps 731 mmHg 62%
    15:00 +30°C° 0.3 mm 0 mps 731 mmHg 62%
    16:00 +30°C° 0.3 mm 0 mps 730 mmHg 61%
    17:00 +28°C° 0.1 mm 0 mps 731 mmHg 68%
    18:00 +26°C° 0.1 mm 0 mps 731 mmHg 74%
    19:00 +24°C° 0.1 mm 0 mps 732 mmHg 81%
    20:00 +24°C° 0.1 mm 0 mps 732 mmHg 82%
    21:00 +26°C° 0.1 mm 1 mps 733 mmHg 83%
    22:00 +25°C° 0.1 mm 1 mps 733 mmHg 84%
    23:00 +25°C° 0.1 mm 1 mps 733 mmHg 84%

    Day after tomorrow, 26 November, Sunday

    Time Temperature Precipitation Wind Pressure Humidity
    00:00 +25°C° 0.1 mm 1 mps 733 mmHg 84%
    01:00 +24°C° 0.1 mm 1 mps 732 mmHg 84%
    02:00 +24°C° 0.1 mm 1 mps 732 mmHg 84%
    03:00 +24°C° 0.1 mm 1 mps 732 mmHg 83%
    04:00 +24°C° 0.1 mm 1 mps 731 mmHg 83%
    05:00 +25°C° 0.1 mm 1 mps 732 mmHg 81%
    06:00 +25°C° 0.1 mm 1 mps 732 mmHg 79%
    07:00 +26°C° 0.1 mm 1 mps 732 mmHg 77%
    08:00 +28°C° 0.2 mm 1 mps 733 mmHg 69%
    09:00 +30°C° 0.2 mm 1 mps 733 mmHg 62%
    10:00 +32°C° 0.2 mm 1 mps 733 mmHg 55%
    11:00 +33°C° 0.3 mm 1 mps 732 mmHg 54%
    12:00 +34°C° 0.3 mm 1 mps 732 mmHg 52%
    13:00 +35°C° 0.3 mm 1 mps 731 mmHg 51%
    14:00 +34°C° 0 mm 1 mps 730 mmHg 51%
    15:00 +34°C° 0 mm 1 mps 729 mmHg 52%
    16:00 +34°C° 0 mm 1 mps 729 mmHg 53%
    17:00 +32°C° 0.1 mm 1 mps 729 mmHg 60%
    18:00 +27°C° 0.1 mm 0 mps 730 mmHg 68%
    19:00 +25°C° 0.1 mm 0 mps 730 mmHg 75%
    20:00 +27°C° 0.3 mm 1 mps 731 mmHg 77%
    21:00 +26°C° 0.3 mm 1 mps 731 mmHg 78%
    22:00 +26°C° 0.3 mm 1 mps 732 mmHg 80%
    23:00 +26°C° 0.2 mm 1 mps 731 mmHg 81%

    27 November, Monday

    Time Temperature Precipitation Wind Pressure Humidity
    00:00 +25°C° 0.2 mm 1 mps 731 mmHg 82%
    01:00 +25°C° 0.2 mm 1 mps 731 mmHg 84%
    02:00 +25°C° 0.3 mm 1 mps 731 mmHg 84%
    03:00 +24°C° 0.3 mm 1 mps 730 mmHg 85%
    04:00 +24°C° 0.3 mm 1 mps 730 mmHg 86%
    05:00 +25°C° 0.1 mm 1 mps 731 mmHg 84%
    06:00 +25°C° 0.1 mm 1 mps 731 mmHg 83%
    07:00 +25°C° 0.1 mm 1 mps 732 mmHg 82%
    08:00 +28°C° 0.1 mm 1 mps 732 mmHg 73%
    09:00 +30°C° 0.1 mm 1 mps 732 mmHg 63%
    10:00 +33°C° 0.1 mm 1 mps 733 mmHg 54%
    11:00 +33°C° 0.3 mm 1 mps 732 mmHg 54%
    12:00 +34°C° 0.3 mm 1 mps 731 mmHg 53%
    13:00 +34°C° 0.3 mm 1 mps 730 mmHg 53%
    14:00 +34°C° 0.4 mm 1 mps 730 mmHg 55%
    15:00 +33°C° 0.4 mm 1 mps 729 mmHg 56%
    16:00 +33°C° 0.4 mm 1 mps 729 mmHg 57%
    17:00 +31°C° 0.6 mm 1 mps 729 mmHg 65%
    18:00 +29°C° 0.6 mm 1 mps 730 mmHg 73%
    19:00 +27°C° 0.6 mm 1 mps 730 mmHg 81%
    20:00 +27°C° 1.1 mm 1 mps 731 mmHg 84%
    21:00 +26°C° 1.1 mm 1 mps 732 mmHg 87%
    22:00 +25°C° 1.1 mm 1 mps 732 mmHg 90%
    23:00 +25°C° 0.7 mm 1 mps 732 mmHg 90%

    28 November, Tuesday

    Time Temperature Precipitation Wind Pressure Humidity
    00:00 +25°C° 0.7 mm 1 mps 732 mmHg 90%
    01:00 +25°C° 0.7 mm 1 mps 731 mmHg 90%
    02:00 +25°C° 0.4 mm 1 mps 731 mmHg 90%
    03:00 +25°C° 0.4 mm 1 mps 731 mmHg 89%
    04:00 +24°C° 0.4 mm 1 mps 731 mmHg 89%
    05:00 +25°C° 0.4 mm 1 mps 732 mmHg 88%
    06:00 +25°C° 0.4 mm 1 mps 732 mmHg 87%
    07:00 +25°C° 0.4 mm 1 mps 733 mmHg 86%
    08:00 +27°C° 0.3 mm 1 mps 733 mmHg 78%
    09:00 +29°C° 0.3 mm 1 mps 733 mmHg 71%
    10:00 +30°C° 0.3 mm 1 mps 734 mmHg 64%
    11:00 +32°C° 0.2 mm 1 mps 733 mmHg 59%
    12:00 +33°C° 0.2 mm 1 mps 732 mmHg 54%
    13:00 +34°C° 0.2 mm 1 mps 731 mmHg 49%
    14:00 +34°C° 0 mm 1 mps 731 mmHg 50%
    15:00 +34°C° 0 mm 1 mps 730 mmHg 51%
    16:00 +33°C° 0 mm 1 mps 730 mmHg 52%
    17:00 +31°C° 0.4 mm 1 mps 730 mmHg 62%
    18:00 +29°C° 0.4 mm 1 mps 731 mmHg 72%
    19:00 +25°C° 0.4 mm 0 mps 732 mmHg 82%
    20:00 +26°C° 1.4 mm 1 mps 732 mmHg 86%
    21:00 +25°C° 1.4 mm 1 mps 733 mmHg 89%
    22:00 +25°C° 1.4 mm 1 mps 734 mmHg 92%
    23:00 +25°C° 1 mm 1 mps 733 mmHg 92%

    29 November, Wednesday

    Time Temperature Precipitation Wind Pressure Humidity
    00:00 +25°C° 1 mm 1 mps 733 mmHg 92%
    01:00 +23°C° 1 mm 0 mps 733 mmHg 92%
    02:00 +22°C° 0.7 mm 0 mps 733 mmHg 92%
    03:00 +22°C° 0.7 mm 0 mps 732 mmHg 92%
    04:00 +22°C° 0.7 mm 0 mps 732 mmHg 92%
    05:00 +24°C° 0.7 mm 1 mps 733 mmHg 92%
    06:00 +24°C° 0.7 mm 1 mps 733 mmHg 92%
    07:00 +25°C° 0.7 mm 1 mps 734 mmHg 92%
    08:00 +26°C° 0.5 mm 1 mps 734 mmHg 87%
    09:00 +27°C° 0.5 mm 1 mps 734 mmHg 82%
    10:00 +29°C° 0.5 mm 1 mps 734 mmHg 76%
    11:00 +30°C° 0.1 mm 1 mps 733 mmHg 71%
    12:00 +31°C° 0.1 mm 1 mps 733 mmHg 65%
    13:00 +32°C° 0.1 mm 1 mps 732 mmHg 59%
    14:00 +32°C° 0.1 mm 1 mps 731 mmHg 62%
    15:00 +31°C° 0.1 mm 1 mps 731 mmHg 64%
    16:00 +31°C° 0.1 mm 1 mps 730 mmHg 67%
    17:00 +29°C° 0.2 mm 1 mps 731 mmHg 75%
    18:00 +27°C° 0.2 mm 1 mps 731 mmHg 83%
    19:00 +24°C° 0.2 mm 0 mps 732 mmHg 91%
    20:00 +24°C° 0.3 mm 0 mps 732 mmHg 92%
    21:00 +23°C° 0.3 mm 0 mps 733 mmHg 93%
    22:00 +23°C° 0.3 mm 0 mps 733 mmHg 94%
    23:00 +23°C° 0.1 mm 0 mps 733 mmHg 94%
    Show more